Flag for Cyprus Weather past 2 weeks in Limassol, Cyprus

Now
73 °F

Passing clouds.


Feels Like: 73 °F
Forecast: 69 / 79 °F
Wind: 1 mph from North

Location: Akrotiri

Current Time: Oct 24, 2014 at 10:08:01 AM

Latest Report: Oct 24, 2014 at 8:50 AM


Visibility: N/A

Pressure: 30.01 "Hg

Humidity: 83%

Dew point: 68 °F

Location of LimassolLocation

Historic Weather in Limassol — Graph

°F

Limassol temperature yesterday

Maximum temperature yesterday: 77 °F (at 12:50 PM)
Minimum temperature yesterday: 64 °F (at 4:50 AM)
Average temperature yesterday: 70 °F

Past Weeks' High & Low Weather Summary

 TemperatureHumidityPressure
High84 °F (Oct 9, 12:50 PM)89% (Oct 9, 10:50 PM)30.07 "Hg (Oct 9, 10:50 PM)
Low55 °F (Oct 21, 4:50 AM)25% (Oct 20, 12:50 PM)29.77 "Hg (Oct 19, 3:50 AM)
Average71 °F65%29.94 "Hg
* Reported Oct 9 7:50 AM — Oct 24 7:50 AM, Limassol, Weather by CustomWeather, © 2014

Note: Actual official high and low records may vary slightly from our data, if they occured in-between our weather recording intervals... More about our weather records

Advertising

Limassol weather history for previous 24 hours

 ConditionsComfort  
Time TempWeatherWind HumidityBarometerVisibility
7:50 AM
Oct 24
68 °FScattered showers. Passing clouds.3 mph88%29.98 "Hg6 mi
6:50 AM66 °FPassing clouds.3 mph88%29.98 "HgN/A
5:50 AM66 °FPassing clouds.2 mph88%29.98 "HgN/A
4:50 AM66 °FPassing clouds.2 mph88%29.95 "HgN/A
3:50 AM66 °FPassing clouds.1 mph88%29.98 "HgN/A
2:50 AM64 °FPassing clouds.2 mph88%29.98 "HgN/A
1:50 AM64 °FPassing clouds.1 mph88%29.98 "HgN/A
12:50 AM66 °FPassing clouds.2 mph83%29.98 "HgN/A
11:50 PM
Oct 23
66 °FPassing clouds.2 mph83%30.01 "HgN/A
10:50 PM66 °FPassing clouds.1 mph83%30.01 "HgN/A
9:50 PM68 °FPassing clouds.2 mph83%29.98 "HgN/A
8:50 PM68 °FClear.2 mph83%29.98 "Hg10 mi
7:50 PM70 °FClear.1 mph78%29.98 "Hg10 mi
6:50 PM72 °FPassing clouds.2 mph73%29.98 "HgN/A
5:50 PM73 °FPassing clouds.3 mph65%29.95 "HgN/A
4:50 PM75 °FPassing clouds.7 mph57%29.95 "HgN/A
3:50 PM75 °FPassing clouds.7 mph54%29.95 "HgN/A
2:50 PM77 °FPassing clouds.8 mph51%29.95 "HgN/A
1:50 PM75 °FScattered clouds.6 mph50%29.95 "HgN/A
12:50 PM77 °FScattered clouds.6 mph51%29.98 "HgN/A
11:50 AM73 °FScattered clouds.5 mph50%29.98 "HgN/A
10:50 AM68 °FPartly sunny.8 mph73%29.98 "HgN/A
Weather by CustomWeather, © 2014

See weather overviewHow to use our weather pages